CW9181 Weather Reports


time (UTC)temp
C
wind
direction
speed
KPH
gust
KPH
rain 1hr
cm
rain 24hr
cm
rain mn
cm
humidity
%
barometer
mb
20260905112026 13 112 3.2 9.7 0.00 0.00 0.00 78 1014.3
20260905111005 13 116 3.2 6.4 0.00 0.00 0.00 77 1014.3
20260905110008 13 104 3.2 6.4 0.00 0.00 0.00 77 1014.3
20260905105012 13 126 4.8 6.4 0.00 0.00 0.00 77 1014.3
20260905104009 13 119 3.2 6.4 0.00 0.00 0.00 77 1014.4
20260905103014 13 112 3.2 4.8 0.00 0.00 0.00 77 1014.4
20260905102015 13 100 1.6 4.8 0.00 0.00 0.00 77 1014.6
20260905101021 13 100 0.0 3.2 0.00 0.00 0.00 76 1014.6
20260905100039 13 102 1.6 4.8 0.00 0.00 0.00 77 1014.5
20260905095022 13 120 3.2 6.4 0.00 0.00 0.00 77 1014.6
20260905094025 13 124 1.6 4.8 0.00 0.00 0.00 77 1014.6
20260905093021 13 110 1.6 4.8 0.00 0.00 0.00 76 1014.5
20260905092046 14 130 0.0 0.0 0.00 0.00 0.00 76 1014.4
20260905091005 14 121 0.0 0.0 0.00 0.00 0.00 75 1014.4
20260905090024 14 116 0.0 0.0 0.00 0.00 0.00 74 1014.4
20260905085011 14 117 0.0 0.0 0.00 0.03 0.00 74 1014.4
20260905084008 15 117 0.0 4.8 0.00 0.03 0.00 73 1014.5
20260905083028 15 116 3.2 4.8 0.00 0.03 0.00 72 1014.5
20260905082027 15 137 0.0 3.2 0.00 0.03 0.00 71 1014.6
20260905081011 15 145 1.6 4.8 0.00 0.03 0.00 70 1014.6
20260905080012 15 130 3.2 6.4 0.00 0.03 0.00 69 1014.4
20260905075012 15 132 3.2 8.0 0.00 0.08 0.00 69 1014.3
20260905074035 16 129 4.8 8.0 0.00 0.08 0.00 68 1014.2
20260905073016 16 134 3.2 6.4 0.00 0.08 0.00 68 1014.1
20260905072020 16 144 1.6 4.8 0.00 0.08 0.00 67 1014.1
20260905071011 16 126 0.0 3.2 0.00 0.08 0.00 67 1014.1
20260905070019 16 130 3.2 6.4 0.00 0.08 0.00 66 1014.1
20260905065021 16 113 3.2 8.0 0.00 0.08 0.08 66 1014.0
20260905064018 16 105 4.8 9.7 0.00 0.08 0.08 66 1014.0
20260905063016 17 128 3.2 6.4 0.00 0.08 0.08 66 1013.9
20260905062010 17 127 3.2 6.4 0.00 0.08 0.08 67 1013.9
20260905061026 17 114 3.2 6.4 0.00 0.08 0.08 66 1014.0
20260905060026 17 110 3.2 6.4 0.00 0.08 0.08 66 1014.1
20260905055020 17 88 3.2 6.4 0.00 0.08 0.08 66 1014.1
20260905054017 17 124 0.0 0.0 0.00 0.08 0.08 65 1014.0
20260905053013 17 124 0.0 3.2 0.00 0.08 0.08 64 1014.1
20260905052026 17 123 1.6 3.2 0.00 0.08 0.08 64 1014.1
20260905051046 18 124 1.6 3.2 0.00 0.08 0.08 63 1014.0
20260905050024 18 188 0.0 4.8 0.00 0.08 0.08 62 1014.0
20260905045020 18 183 3.2 8.0 0.00 0.08 0.08 61 1014.0
20260905044018 18 178 3.2 9.7 0.00 0.08 0.08 60 1014.0
20260905043018 19 174 3.2 6.4 0.00 0.08 0.08 59 1013.9
20260905042012 19 195 3.2 8.0 0.00 0.08 0.08 58 1013.9
20260905041013 20 172 3.2 6.4 0.00 0.08 0.08 56 1013.5
20260905040013 20 260 1.6 6.4 0.00 0.08 0.08 54 1013.4
20260905035011 20 170 1.6 6.4 0.00 0.08 0.08 52 1013.3
20260905034012 20 236 1.6 8.0 0.00 0.08 0.08 50 1013.3
20260905033017 20 213 4.8 19.3 0.00 0.08 0.08 45 1013.1
20260905032014 21 177 3.2 6.4 0.00 0.08 0.08 43 1013.0
20260905031016 21 199 3.2 8.0 0.00 0.08 0.08 42 1012.8
20260905030039 21 197 3.2 9.7 0.00 0.08 0.08 40 1012.8
20260905025008 22 180 3.2 9.7 0.00 0.08 0.08 38 1012.8
20260905024030 22 170 3.2 11.3 0.00 0.08 0.08 38 1012.7
20260905023009 22 195 3.2 8.0 0.00 0.08 0.08 38 1012.7
20260905022025 23 162 3.2 8.0 0.00 0.08 0.08 38 1012.6
20260905021026 23 184 1.6 9.7 0.00 0.08 0.08 39 1012.6
20260905020008 23 232 6.4 12.9 0.00 0.08 0.08 38 1012.6
20260905015043 24 245 4.8 12.9 0.00 0.08 0.08 37 1012.6
20260905014022 25 243 4.8 14.5 0.00 0.08 0.08 38 1012.7
20260905013023 25 228 4.8 9.7 0.00 0.08 0.08 38 1012.6
20260905012022 25 170 4.8 14.5 0.00 0.08 0.08 38 1012.5
20260905011029 25 245 3.2 9.7 0.00 0.08 0.08 40 1012.5
20260905010026 25 199 6.4 14.5 0.00 0.08 0.08 39 1012.4
20260905005009 25 228 3.2 9.7 0.00 0.08 0.08 37 1012.5
20260905004007 25 211 3.2 8.0 0.00 0.08 0.08 38 1012.5
20260905003009 26 232 3.2 11.3 0.00 0.08 0.08 38 1012.4
20260905002043 26 166 4.8 16.1 0.00 0.08 0.08 37 1012.5
20260905001008 26 232 6.4 11.3 0.00 0.08 0.08 38 1012.6
20260905000011 26 246 3.2 12.9 0.00 0.08 0.08 39 1012.6
20260904235015 26 174 1.6 12.9 0.00 0.08 0.08 38 1012.8
20260904234015 26 203 4.8 11.3 0.00 0.08 0.08 40 1012.6
20260904233016 25 286 1.6 8.0 0.00 0.08 0.08 39 1012.8
20260904232020 25 270 3.2 14.5 0.00 0.08 0.08 41 1012.9
20260904231020 25 169 6.4 14.5 0.00 0.08 0.08 39 1013.1
20260904230021 25 181 4.8 12.9 0.00 0.08 0.08 39 1013.3
20260904225043 25 157 8.0 16.1 0.00 0.08 0.08 39 1013.2
20260904224018 25 150 6.4 16.1 0.00 0.08 0.08 41 1013.3
20260904223020 24 250 1.6 6.4 0.00 0.08 0.08 44 1013.4
20260904222022 24 199 8.0 16.1 0.00 0.08 0.08 43 1013.4
20260904221021 24 70 4.8 16.1 0.00 0.08 0.08 43 1013.4
20260904220023 24 286 6.4 17.7 0.00 0.08 0.08 45 1013.4
20260904215019 23 244 1.6 19.3 0.00 0.08 0.08 44 1013.4
20260904214020 23 170 4.8 12.9 0.00 0.08 0.08 44 1013.3
20260904213018 23 239 6.4 16.1 0.00 0.08 0.08 46 1013.4
20260904212021 23 239 6.4 17.7 0.00 0.08 0.08 47 1013.6
20260904211039 23 254 8.0 16.1 0.00 0.08 0.08 47 1013.5
20260904210020 23 174 8.0 17.7 0.00 0.08 0.08 49 1013.5
20260904205024 23 256 8.0 16.1 0.00 0.08 0.08 50 1013.6
20260904204019 23 238 4.8 12.9 0.00 0.08 0.08 50 1013.5
20260904203021 23 260 4.8 12.9 0.00 0.08 0.08 50 1013.6
20260904202023 23 157 9.7 16.1 0.00 0.08 0.08 51 1013.8
20260904201006 22 138 4.8 14.5 0.00 0.08 0.08 53 1013.8
20260904200008 23 235 3.2 12.9 0.00 0.08 0.08 53 1013.8
20260904195011 23 161 3.2 11.3 0.00 0.08 0.08 55 1013.9
20260904194014 23 66 3.2 12.9 0.00 0.08 0.08 55 1013.9
20260904193013 22 107 6.4 12.9 0.00 0.08 0.08 55 1014.1
20260904192013 22 146 6.4 12.9 0.00 0.08 0.08 56 1014.3
20260904191017 22 246 4.8 12.9 0.00 0.08 0.08 59 1014.4
20260904190009 22 181 4.8 14.5 0.00 0.08 0.08 58 1014.3
20260904185010 21 146 8.0 17.7 0.00 0.08 0.08 61 1014.3
20260904184014 21 116 6.4 17.7 0.00 0.08 0.08 62 1014.5
20260904183010 21 155 8.0 16.1 0.00 0.08 0.08 64 1014.4
20260904182011 21 132 9.7 16.1 0.00 0.08 0.08 64 1014.4
20260904181008 21 91 8.0 17.7 0.00 0.08 0.08 65 1014.5
20260904180008 20 180 11.3 20.9 0.00 0.08 0.08 66 1014.5
20260904175008 20 141 8.0 16.1 0.00 0.08 0.08 68 1014.6
20260904174009 20 154 1.6 12.9 0.00 0.08 0.08 70 1014.5
20260904173014 19 245 3.2 14.5 0.00 0.08 0.08 73 1014.5
20260904172010 20 117 4.8 12.9 0.00 0.08 0.08 72 1014.4
20260904171013 19 195 9.7 19.3 0.00 0.08 0.08 73 1014.4
20260904170019 18 217 8.0 17.7 0.00 0.08 0.08 73 1014.3
20260904165015 18 124 9.7 17.7 0.00 0.08 0.08 74 1014.2
20260904164014 18 128 4.8 16.1 0.00 0.08 0.08 78 1014.2
20260904163036 18 170 9.7 17.7 0.00 0.08 0.08 80 1014.1
20260904162015 18 145 9.7 16.1 0.00 0.08 0.08 80 1014.0
20260904161016 17 170 3.2 9.7 0.00 0.08 0.08 82 1013.9
20260904160041 17 186 6.4 12.9 0.00 0.08 0.08 84 1013.9
20260904155038 16 170 6.4 16.1 0.00 0.08 0.08 86 1013.9
20260904154022 16 167 6.4 12.9 0.00 0.08 0.08 88 1013.9
20260904153025 15 151 6.4 16.1 0.00 0.08 0.08 88 1013.7
20260904152022 15 170 8.0 12.9 0.00 0.08 0.08 89 1013.7
20260904151024 15 184 3.2 9.7 0.00 0.08 0.08 89 1013.7
20260904150009 15 178 6.4 12.9 0.00 0.08 0.08 89 1013.5
20260904145006 15 207 1.6 9.7 0.00 0.08 0.08 90 1013.5
20260904144008 15 188 0.0 6.4 0.00 0.08 0.08 90 1013.4
20260904143012 15 180 1.6 6.4 0.00 0.08 0.08 90 1013.3
20260904142010 15 228 3.2 9.7 0.00 0.08 0.08 90 1013.2
20260904141010 15 176 3.2 9.7 0.00 0.08 0.08 90 1013.0
20260904140035 15 191 3.2 6.4 0.00 0.08 0.08 90 1013.0
20260904135013 15 168 4.8 11.3 0.00 0.08 0.08 90 1012.6
20260904134018 15 174 4.8 11.3 0.00 0.08 0.08 90 1012.4
20260904133020 15 172 6.4 11.3 0.00 0.08 0.08 90 1012.5
20260904132014 16 161 3.2 8.0 0.00 0.08 0.08 91 1012.5
20260904131019 16 159 3.2 9.7 0.00 0.08 0.08 91 1012.5
20260904130021 16 180 4.8 11.3 0.00 0.08 0.08 91 1012.4
20260904125023 16 153 4.8 9.7 0.00 0.08 0.08 91 1012.3
20260904124020 16 187 4.8 9.7 0.00 0.08 0.08 91 1012.3
20260904123024 16 145 3.2 12.9 0.00 0.08 0.08 91 1012.2
20260904122007 16 175 4.8 12.9 0.00 0.08 0.08 91 1012.2
20260904121007 16 137 4.8 12.9 0.00 0.08 0.08 91 1012.0
20260904120015 16 157 4.8 11.3 0.00 0.08 0.08 91 1012.0
20260904115040 16 176 1.6 9.7 0.00 0.08 0.08 91 1012.0
20260904114019 16 164 3.2 8.0 0.00 0.08 0.08 91 1012.0
20260904113023 16 131 3.2 8.0 0.00 0.08 0.08 91 1012.0